Flag for China Weather past 2 weeks in Fushun, Liaoning, China

Now
43 °F

Fog.


Feels Like: 43 °F
Forecast: 50 / 65 °F
Wind: 1 mph from North

Location: Shenyang / Taoxian

Current Time: Mar 29, 2015 at 8:42:51 AM

Latest Report: Mar 29, 2015 at 8:00 AM


Visibility: 2 mi

Pressure: 30.07 "Hg

Humidity: 87%

Dew point: 39 °F

Location of FushunLocation

Historic Weather in Fushun — Graph

°F

Fushun temperature yesterday

Maximum temperature yesterday: 52 °F (at 12:00 AM)
Minimum temperature yesterday: 37 °F (at 11:00 PM)
Average temperature yesterday: 49 °F

Past Weeks' High & Low Weather Summary

 TemperatureHumidityPressure
High66 °F (Mar 26, 12:30 PM)100% (Mar 17, 3:00 AM)30.57 "Hg (Mar 17, 3:00 AM)
Low19 °F (Mar 24, 2:30 AM)9% (Mar 21, 2:30 PM)29.83 "Hg (Mar 18, 4:30 PM)
Average42 °F42%30.15 "Hg
* Reported Mar 14 7:00 AM — Mar 29 7:00 AM, Fushun, Weather by CustomWeather, © 2015

Note: Actual official high and low records may vary slightly from our data, if they occured in-between our weather recording intervals... More about our weather records

Advertising

Fushun weather history for previous 24 hours

 ConditionsComfort  
Time TempWeatherWind HumidityBarometerVisibility
7:00 AM
Sun, Mar 29
37 °FFog.3 mph93%30.07 "Hg1 mi
6:30 AM37 °FFog.8 mph93%30.04 "Hg1 mi
6:00 AM36 °FFog.6 mph100%30.07 "Hg1 mi
5:30 AM36 °FFog.3 mph100%30.07 "Hg1 mi
4:30 AM32 °FIce fog.1 mph93%30.07 "Hg1 mi
4:00 AM34 °FFog.3 mph93%30.07 "Hg1 mi
3:30 AM34 °FFog.3 mph93%30.04 "Hg1 mi
3:00 AM34 °FFog.1 mph93%30.04 "Hg1 mi
2:30 AM34 °FFog.1 mph100%30.04 "Hg1 mi
2:00 AM34 °FFog.No wind93%30.04 "Hg1 mi
1:30 AM34 °FFog.1 mph93%30.04 "Hg1 mi
1:00 AM36 °FFog.1 mph93%30.01 "Hg1 mi
12:30 AM36 °FFog.1 mph93%30.01 "Hg2 mi
12:00 AM37 °FFog.No wind87%30.01 "Hg2 mi
11:30 PM
Sat, Mar 28
37 °FFog.1 mph87%30.01 "Hg2 mi
11:00 PM37 °FFog.1 mph93%30.01 "Hg2 mi
10:30 PM39 °FFog.1 mph87%30.01 "Hg3 mi
10:00 PM41 °FClear.1 mph81%29.98 "Hg4 mi
9:30 PM41 °FClear.1 mph81%30.01 "Hg4 mi
9:00 PM45 °FOvercast.1 mph81%29.98 "Hg4 mi
8:30 PM45 °FOvercast.1 mph81%29.98 "Hg4 mi
8:00 PM45 °FOvercast.1 mph81%29.98 "Hg4 mi
7:30 PM46 °FOvercast.1 mph76%29.98 "Hg4 mi
7:00 PM46 °FOvercast.3 mph76%29.95 "Hg4 mi
6:30 PM48 °FOvercast.3 mph71%29.95 "Hg4 mi
6:00 PM48 °FOvercast.3 mph66%29.92 "Hg4 mi
5:30 PM48 °FOvercast.3 mph71%29.92 "Hg4 mi
5:00 PM50 °FOvercast.3 mph62%29.92 "Hg4 mi
4:30 PM50 °FOvercast.3 mph67%29.92 "Hg4 mi
4:00 PM50 °FOvercast.6 mph62%29.89 "Hg4 mi
3:30 PM50 °FOvercast.8 mph62%29.89 "Hg4 mi
3:00 PM52 °FOvercast.8 mph58%29.89 "Hg4 mi
2:30 PM52 °FOvercast.8 mph58%29.86 "Hg4 mi
2:00 PM52 °FOvercast.8 mph58%29.86 "Hg4 mi
1:30 PM52 °FOvercast.10 mph58%29.86 "Hg4 mi
1:00 PM52 °FClear.10 mph58%29.86 "Hg4 mi
12:30 PM52 °FClear.10 mph54%29.89 "Hg4 mi
12:00 PM52 °FClear.13 mph54%29.86 "Hg4 mi
11:30 AM52 °FLight rain. Overcast.8 mph54%29.89 "Hg4 mi
11:00 AM52 °FLight rain. Overcast.10 mph50%29.89 "Hg4 mi
10:30 AM52 °FOvercast.10 mph47%29.86 "Hg4 mi
10:00 AM52 °FOvercast.10 mph47%29.86 "Hg4 mi
9:30 AM52 °FOvercast.8 mph44%29.86 "Hg4 mi
9:00 AM52 °FClear.10 mph41%29.83 "Hg4 mi
8:30 AM52 °FClear.10 mph41%29.86 "Hg5 mi
8:00 AM52 °FClear.10 mph38%29.86 "Hg5 mi
Weather by CustomWeather, © 2015

See weather overviewHow to use our weather pages